Andrews, TX

11:59 AM CDT on May 26, 2017 (GMT -0500)
Andrews

Weather History for KE11 - April, 2013

Change the Weather History Date:

Thursday, April 18, 2013

  Actual Average (KMAF) Record (KMAF)
Temperature  
Mean Temperature 48 °F -  
Max Temperature 59 °F 77 °F 96 °F (1948)
Min Temperature 36 °F 49 °F 34 °F (1998)
Degree Days  
Heating Degree Days 18    
Moisture  
Dew Point 22 °F    
Average Humidity 42    
Maximum Humidity 69    
Minimum Humidity 17    
Precipitation  
Precipitation 0.00 in - - ()
Sea Level Pressure  
Sea Level Pressure 30.03 in    
Wind  
Wind Speed 18 mph (North)    
Max Wind Speed 30 mph    
Max Gust Speed 39 mph    
Visibility 10 miles    
Events      
Averages and records for this station are not official NWS values.
T = Trace of Precipitation, MM = Missing Value Source: NWS Daily Summary

Daily Weather History Graph

Daily Weather History Graph

Search for Another Location

Airport or City:

Trip Planner

Search our weather history database for the weather conditions in past years. The results will help you decide how hot, cold, wet, or windy it might be!

Date:

Astronomy

Apr. 18, 2013 Rise Set
Actual Time 7:17 AM CDT 8:22 PM CDT
Civil Twilight 6:51 AM CDT 8:47 PM CDT
Nautical Twilight 6:21 AM CDT 9:17 PM CDT
Astronomical Twilight 5:50 AM CDT 9:48 PM CDT
Moon 1:34 PM CDT (4/18) 2:33 AM CDT (4/18)
Length of Visible Light 13h 55m
Length of Day
13h 04m
First Quarter, 52% of the Moon is Illuminated
Apr 18
First Quarter
Apr 25
Full
May 2
Last Quarter
May 9
New
May 17
First Quarter

Hourly Weather History & Observations

Time (CDT) Temp. Windchill Dew Point Humidity Pressure Visibility Wind Dir Wind Speed Gust Speed Precip Events Conditions
12:15 AM 59.0 °F - 32.9 °F 37% 29.80 in 3.0 mi North 29.9 mph 39.1 mph N/A   Haze
12:35 AM 55.2 °F - 34.7 °F 46% 29.83 in 4.0 mi North 20.7 mph 29.9 mph N/A   Haze
12:55 AM 52.5 °F - 35.1 °F 51% 29.84 in 5.0 mi North 24.2 mph 33.4 mph N/A   Haze
1:15 AM 50.4 °F - 35.6 °F 57% 29.85 in 7.0 mi North 26.5 mph 31.1 mph N/A   Overcast
1:35 AM 48.6 °F - 35.1 °F 60% 29.86 in 7.0 mi North 20.7 mph 27.6 mph N/A   Mostly Cloudy
1:55 AM 46.6 °F - 34.7 °F 63% 29.89 in 10.0 mi North 21.9 mph 28.8 mph N/A   Mostly Cloudy
2:15 AM 45.1 °F 37.6 °F 34.2 °F 65% 29.90 in 10.0 mi North 18.4 mph 29.9 mph N/A   Scattered Clouds
2:35 AM 43.9 °F 35.7 °F 33.8 °F 68% 29.90 in 10.0 mi North 19.6 mph 28.8 mph N/A   Clear
2:55 AM 43.0 °F 35.4 °F 32.4 °F 66% 29.92 in 10.0 mi North 16.1 mph 24.2 mph N/A   Clear
3:15 AM 42.3 °F 33.8 °F 32.0 °F 67% 29.92 in 10.0 mi NNE 18.4 mph 23.0 mph N/A   Clear
3:35 AM 41.5 °F 33.8 °F 31.8 °F 68% 29.94 in 10.0 mi North 15.0 mph 20.7 mph N/A   Clear
3:55 AM 41.0 °F 33.1 °F 31.1 °F 68% 29.94 in 10.0 mi North 15.0 mph 21.9 mph N/A   Clear
4:15 AM 40.1 °F 31.0 °F 30.0 °F 67% 29.95 in 10.0 mi North 18.4 mph 25.3 mph N/A   Clear
4:35 AM 39.2 °F 31.6 °F 29.7 °F 69% 29.96 in 10.0 mi North 12.7 mph - N/A   Clear
4:55 AM 39.2 °F 29.8 °F 29.8 °F 69% 29.96 in 10.0 mi North 18.4 mph 27.6 mph N/A   Clear
5:15 AM 39.2 °F 30.2 °F 29.7 °F 69% 29.96 in 10.0 mi North 17.3 mph 21.9 mph N/A   Clear
5:35 AM 38.8 °F 29.7 °F 29.1 °F 68% 29.97 in 10.0 mi North 17.3 mph 23.0 mph N/A   Clear
5:55 AM 38.8 °F 30.8 °F 28.4 °F 66% 29.98 in 10.0 mi NNE 13.8 mph - N/A   Clear
6:15 AM 38.5 °F 29.9 °F 28.4 °F 67% 29.99 in 10.0 mi NNE 15.0 mph 20.7 mph N/A   Clear
6:35 AM 38.3 °F 30.1 °F 28.0 °F 67% 30.00 in 10.0 mi NNE 13.8 mph 19.6 mph N/A   Clear
6:55 AM 37.8 °F 30.2 °F 28.0 °F 68% 30.01 in 10.0 mi NNE 11.5 mph 15.0 mph N/A   Clear
7:15 AM 37.4 °F 28.5 °F 27.1 °F 66% 30.03 in 10.0 mi North 15.0 mph - N/A   Clear
7:35 AM 36.7 °F 26.6 °F 25.0 °F 63% 30.04 in 10.0 mi North 18.4 mph 25.3 mph N/A   Clear
7:55 AM 36.5 °F 25.7 °F 23.7 °F 60% 30.05 in 10.0 mi North 20.7 mph 25.3 mph N/A   Clear
8:15 AM 36.1 °F 25.2 °F 23.5 °F 60% 30.05 in 10.0 mi North 20.7 mph 27.6 mph N/A   Clear
8:35 AM 36.9 °F 26.5 °F 23.4 °F 58% 30.06 in 10.0 mi NNE 19.6 mph 26.5 mph N/A   Clear
8:55 AM 37.6 °F 28.4 °F 23.2 °F 56% 30.07 in 10.0 mi NNE 16.1 mph 25.3 mph N/A   Clear
9:15 AM 37.9 °F 28.9 °F 23.0 °F 55% 30.07 in 10.0 mi NNE 16.1 mph 23.0 mph N/A   Clear
9:35 AM 39.0 °F 29.6 °F 22.8 °F 52% 30.08 in 10.0 mi NNE 18.4 mph 21.9 mph N/A   Clear
9:55 AM 40.3 °F 31.6 °F 21.2 °F 47% 30.08 in 10.0 mi North 17.3 mph 24.2 mph N/A   Clear
10:15 AM 41.5 °F 32.9 °F 21.9 °F 46% 30.08 in 10.0 mi NNE 18.4 mph 21.9 mph N/A   Clear
10:35 AM 43.3 °F 36.5 °F 22.1 °F 43% 30.08 in 10.0 mi NNE 13.8 mph 19.6 mph N/A   Clear
10:55 AM 44.1 °F 36.8 °F 21.7 °F 41% 30.09 in 10.0 mi North 16.1 mph 19.6 mph N/A   Clear
11:15 AM 45.0 °F 37.4 °F 21.2 °F 39% 30.09 in 10.0 mi North 18.4 mph 21.9 mph N/A   Clear
11:35 AM 46.0 °F 40.2 °F 20.5 °F 36% 30.09 in 10.0 mi North 12.7 mph 20.7 mph N/A   Clear
11:55 AM 47.3 °F - 20.3 °F 34% 30.09 in 10.0 mi North 16.1 mph 19.6 mph N/A   Clear
12:15 PM 48.2 °F - 20.1 °F 33% 30.09 in 10.0 mi North 12.7 mph 21.9 mph N/A   Clear
12:35 PM 50.2 °F - 20.1 °F 31% 30.09 in 10.0 mi North 15.0 mph 20.7 mph N/A   Clear
12:55 PM 51.1 °F - 20.3 °F 30% 30.08 in 10.0 mi North 12.7 mph 19.6 mph N/A   Clear
1:15 PM 51.1 °F - 19.9 °F 29% 30.08 in 10.0 mi North 9.2 mph 21.9 mph N/A   Clear
1:35 PM 52.2 °F - 20.3 °F 29% 30.07 in 10.0 mi NNW 13.8 mph 20.7 mph N/A   Clear
1:55 PM 53.6 °F - 21.2 °F 28% 30.07 in 10.0 mi North 15.0 mph 25.3 mph N/A   Clear
2:15 PM 53.8 °F - 20.5 °F 27% 30.07 in 10.0 mi NNW 18.4 mph 23.0 mph N/A   Clear
2:35 PM 55.6 °F - 20.1 °F 25% 30.06 in 10.0 mi NNE 12.7 mph 19.6 mph N/A   Clear
2:55 PM 55.6 °F - 19.9 °F 25% 30.06 in 10.0 mi NNW 15.0 mph 19.6 mph N/A   Clear
3:35 PM 56.8 °F - 18.5 °F 22% 30.05 in 10.0 mi North 9.2 mph 19.6 mph N/A   Clear
3:55 PM 58.1 °F - 18.0 °F 21% 30.04 in 10.0 mi North 23.0 mph 26.5 mph N/A   Clear
4:15 PM 58.8 °F - 17.8 °F 20% 30.04 in 10.0 mi NNW 23.0 mph 27.6 mph N/A   Clear
4:35 PM 59.0 °F - 17.1 °F 20% 30.04 in 10.0 mi WNW 15.0 mph 24.2 mph N/A   Clear
4:55 PM 57.7 °F - 16.7 °F 20% 30.03 in 10.0 mi North 11.5 mph 18.4 mph N/A   Scattered Clouds
5:15 PM 59.0 °F - 16.2 °F 19% 30.03 in 10.0 mi North 15.0 mph 21.9 mph N/A   Scattered Clouds
5:35 PM 59.4 °F - 15.1 °F 18% 30.03 in 10.0 mi North 12.7 mph 20.7 mph N/A   Clear
5:55 PM 58.5 °F - 14.5 °F 18% 30.04 in 10.0 mi NNW 16.1 mph 20.7 mph N/A   Clear
6:15 PM 58.3 °F - 13.5 °F 17% 30.04 in 10.0 mi North 18.4 mph 23.0 mph N/A   Clear
6:35 PM 58.3 °F - 12.7 °F 17% 30.05 in 10.0 mi North 11.5 mph 20.7 mph N/A   Clear
6:55 PM 57.0 °F - 12.0 °F 17% 30.06 in 10.0 mi North 12.7 mph - N/A   Clear
7:15 PM 57.0 °F - 11.8 °F 17% 30.06 in 10.0 mi NNE 13.8 mph 17.3 mph N/A   Clear
7:35 PM 55.9 °F - 11.7 °F 17% 30.06 in 10.0 mi North 13.8 mph - N/A   Clear
7:55 PM 54.7 °F - 11.1 °F 18% 30.07 in 10.0 mi NNE 10.4 mph - N/A   Clear
8:15 PM 53.1 °F - 10.9 °F 19% 30.07 in 10.0 mi NE 8.1 mph - N/A   Clear
8:35 PM 52.0 °F - 10.9 °F 19% 30.08 in 10.0 mi NE 10.4 mph - N/A   Clear
9:55 PM 48.0 °F - 11.8 °F 23% 30.13 in 10.0 mi ENE 8.1 mph - N/A   Clear
10:35 PM 46.6 °F - 12.7 °F 26% 30.16 in 10.0 mi ENE 8.1 mph - N/A   Clear
10:55 PM 45.9 °F 41.2 °F 13.1 °F 27% 30.17 in 10.0 mi ENE 9.2 mph - N/A   Clear
11:15 PM 45.7 °F 40.6 °F 13.6 °F 28% 30.18 in 10.0 mi ENE 10.4 mph - N/A   Clear
11:35 PM 45.1 °F 39.5 °F 13.8 °F 28% 30.18 in 10.0 mi NE 11.5 mph - N/A   Clear
11:55 PM 44.2 °F 39.2 °F 14.0 °F 30% 30.19 in 10.0 mi NE 9.2 mph - N/A   Clear